Starlink 32831

operational
NORAD ID: 62860 Int'l Des: 2025-022 Owner: SPXS Country: US Constellation: starlink
LEOCIRCULAR

About Starlink 32831

Description loading...

Live Position

Loading 3D Globe...

Upcoming Passes

Altitude History

Altitude vs Time

uPlot chart will show altitude changes over time

Two-Line Element Set

1 62860U 25022G 26034.09147549 .00030843 00000-0 10489-2 0 9999
2 62860 53.1618 290.2767 0000439 148.6520 211.4507 15.30206865 56594
Epoch: Feb 3, 2026 • Age: 27 hours

Current Status

Altitude 479.2 km
Velocity 7.63 km/s
Sub-Earth Point 42.59°N, 117.52°E
Launch Date Feb 2, 2025
Age 1 years
Type internet

Technical Details

Classification Payload
Mass 730.00 kg
Dry Mass 700.00 kg
Total Mass 730.00 kg
Length 0.30 m
Diameter 4.10 m
Span 29.00 m
Shape Box + pan
Manufacturer SPXS
Bus Type Starlink V2M
Phase Status In Orbit
Owner/State SPXS/US

Large Constellations

Loading constellations...